Погода в Густомом

Россия / Курская область     51°38′02″N   35°03′01″E
темп.,
°C
ветер,
м/с
пор.,
м/с
влажн.,
%
обл.,
%
осадки,
мм/ч
давл.,
гПа
погр.,
м
23 января, сб
сб2300:00+1ююз61096100 0.0 1014369
03:00+1ююз61197100 0.0 1014406
06:00−1ю5109442 0.0 1013274
09:00+2ююз61298100 0.0 1014419
12:00+1ю49100100 0.0 1014247
15:00+2ю411100100 0.0 1013303
18:00+1ю3699100 0.0 1013146
21:00+1ю3899100 0.0 1013197
24 января, вс
вс2400:00+2ююв41099100 0.0 1013264
03:00+2ююв4999100 0.0 1012211
06:00+2ююв51099100 0.0 1011246
09:00+2ююв51199100 0.0 1012283
12:00+2ююв51398100 0.0 1012402
15:00+3ююв61491100 0.0 1011444
18:00+3ююв61594100 0.0 1012373
21:00+3ююв71786100 0.1 1012494
25 января, пн
пн2500:00+2ююв71678100 0.0 1011462
03:00+2ююв61293100 0.0 1009381
06:000юв61386100 0.1 1010396
09:00+2ююв51196100 0.1 1009292
12:00+3ююв5109692 0.0 1009315
15:00+2юв61294100 1.1 1007385
18:00+3юв61494100 0.0 1006454
21:00+3юв71494100 0.1 1008390
26 января, вт
вт2600:00+3вюв81588100 1.8 1006444
03:00+3юв91985100 1.0 1001693
06:00+1юв81397100 1.4 999433
09:00+3юв81791100 2.4 1000713
12:00+5ююв7168076 0.1 10001324
15:00+2юз61088100 0.1 1005692
18:00+2ю7147696 0.4 9971044
21:000ю4790100 0.0 1010239
27 января, ср
ср2700:00−1ююз111792100 0.5 9991202
03:00−1ююз111891100 1.2 10001162
06:000св3598100 1.1 1008242
09:00−1ююз101689100 0.8 10031095
12:00−1юз101590100 0.4 10061128
15:00+2вюв31199100 5.9 1001449
18:00+3юв51595100 1.1 1000582
21:00−2юз5128777 0.1 1010587